Simultaneous Nadir Overpasses (SNOs) Predictions

Prediction of SNOs between METOP-A and METOP-B Satellite Orbit:

Table of predicted SNOs for the next 14.0 days since TLE Epoch: 7/28/2014
Index Date (METOP-A) Time (METOP-A) Lat,Lon (METOP-A) SZA (METOP-A ) Date (METOP-B) Time (METOP-B) Lat,Lon (METOP-B) SZA (METOP-B ) Distance(km) Time Diff (sec)
1 07/28/2014 03:28:58 81.36,-179.40 65.71 07/28/2014 03:28:57 81.36,-179.40 65.71 0.07 1
2 07/28/2014 04:19:39 -81.36, -12.15 114.30 07/28/2014 04:19:38 -81.36, -12.14 114.30 0.07 1
3 07/28/2014 05:10:20 81.36, 155.10 65.70 07/28/2014 05:10:19 81.36, 155.10 65.70 0.07 1
4 07/28/2014 06:01:00 -81.36, -37.25 114.26 07/28/2014 06:00:59 -81.36, -37.25 114.26 0.07 1
5 07/28/2014 06:51:41 81.36, 129.99 65.75 07/28/2014 06:51:40 81.36, 129.99 65.75 0.07 1
6 07/28/2014 07:42:22 -81.36, -62.76 114.26 07/28/2014 07:42:21 -81.36, -62.75 114.26 0.07 1
7 07/28/2014 08:33:03 81.36, 104.48 65.74 07/28/2014 08:33:02 81.36, 104.49 65.74 0.07 1
8 07/28/2014 09:23:44 -81.36, -88.26 114.26 07/28/2014 09:23:43 -81.36, -88.26 114.26 0.07 1
9 07/28/2014 10:14:24 81.36, 79.38 65.79 07/28/2014 10:14:23 81.36, 79.38 65.79 0.07 1
10 07/28/2014 11:05:05 -81.36,-113.37 114.22 07/28/2014 11:05:04 -81.36,-113.36 114.22 0.07 1
11 07/28/2014 11:55:46 81.36, 53.87 65.78 07/28/2014 11:55:45 81.36, 53.87 65.78 0.07 1
12 07/28/2014 12:46:27 -81.36,-138.87 114.22 07/28/2014 12:46:26 -81.36,-138.86 114.22 0.07 1
13 07/28/2014 13:37:08 81.36, 28.37 65.78 07/28/2014 13:37:07 81.36, 28.37 65.78 0.07 1
14 07/28/2014 14:27:48 -81.36,-163.98 114.18 07/28/2014 14:27:47 -81.36,-163.97 114.18 0.07 1
15 07/28/2014 15:18:29 81.36, 3.26 65.82 07/28/2014 15:18:28 81.36, 3.26 65.82 0.07 1
16 07/28/2014 16:09:10 -81.36, 170.52 114.18 07/28/2014 16:09:09 -81.36, 170.53 114.18 0.07 1
17 07/28/2014 16:59:51 81.36, -22.25 65.82 07/28/2014 16:59:50 81.36, -22.24 65.82 0.07 1
18 07/28/2014 17:50:32 -81.36, 145.02 114.18 07/28/2014 17:50:31 -81.36, 145.02 114.18 0.07 1
19 07/28/2014 18:41:12 81.36, -47.35 65.86 07/28/2014 18:41:11 81.36, -47.35 65.86 0.07 1
20 07/28/2014 19:31:53 -81.36, 119.91 114.14 07/28/2014
